Location: Schommer Observatory
(40.5200°N, 74.4500°W)
Time: 08:26:53
(UTC-05:00)

N. Korean satellite - Visible Passes

Search period start: 21 January 2019 00:00
Search period end: 31 January 2019 00:00
Orbit: 458 x 509 km, 97.2° (Epoch: 20 January)

Date Brightness Start Highest point End Pass type
(mag) Time Alt. Az. Time Alt. Az. Time Alt. Az.
21 Jan 8.2 05:48:17 10° NNE 05:51:47 39° E 05:55:12 10° SSE visible
21 Jan 8.6 17:56:43 10° SSW 18:00:04 34° W 18:03:29 10° NNW visible
22 Jan 9.5 05:24:16 10° NE 05:27:00 19° E 05:29:40 10° SE visible
22 Jan 6.9 17:31:42 10° S 17:35:22 74° W 17:39:05 10° NNW visible
23 Jan 6.8 06:32:15 10° N 06:35:52 51° WNW 06:39:23 10° SSW visible
24 Jan 6.9 06:07:32 10° NNE 06:11:15 73° ESE 06:14:51 10° S visible
24 Jan 9.7 18:16:52 10° SW 18:19:36 20° W 18:22:22 10° NW visible
25 Jan 8.5 05:43:09 10° NNE 05:46:31 33° E 05:49:48 10° SSE visible
25 Jan 8.3 17:51:20 10° SSW 17:54:48 39° W 17:58:20 10° NNW visible
26 Jan 9.7 05:19:17 10° NE 05:21:42 17° E 05:24:05 10° SE visible
27 Jan 6.6 06:27:00 10° N 06:30:37 60° WNW 06:34:09 10° SSW visible
27 Jan 10.3 18:37:53 10° WSW 18:39:10 11° W 18:40:27 10° WNW visible
28 Jan 7.1 06:02:20 10° NNE 06:05:57 62° E 06:09:31 10° S visible
28 Jan 9.5 18:11:20 10° SSW 18:14:18 23° W 18:17:18 10° NW visible
29 Jan 8.8 05:38:00 10° NE 05:41:13 28° E 05:44:21 10° SSE visible
29 Jan 8.0 17:45:58 10° S 17:49:32 46° W 17:53:08 10° NNW visible
30 Jan 10.0 05:14:20 10° ENE 05:16:22 14° E 05:18:22 10° SE visible
